RYR61LJ LEPA-LEZL

Flight info

Callsign RYR61LJ
Flight time N/A
Altitude 37000
Route EPAMA N733 VLC M985 MAMIS
Aircraft B738/M-SDE2E3FGHIRWXY/LB1

Departure

Time N/A
Airport Palma de Mallorca Airport (LEPA)

Arrival

Time 2026-05-07 20:46
Airport Seville Airport (LEZL)
Time Latitude Longitude Altitude Speed Heading
2026-05-07 20:11 37.66602 -4.35374 20227 ft 288 kts 264°
2026-05-07 20:11 37.66444 -4.37849 19915 ft 286 kts 264°
2026-05-07 20:11 37.66289 -4.40279 19602 ft 285 kts 264°
2026-05-07 20:11 37.66125 -4.42843 19277 ft 284 kts 264°
2026-05-07 20:12 37.65966 -4.45323 18961 ft 283 kts 264°
2026-05-07 20:12 37.65806 -4.47793 18658 ft 282 kts 264°
2026-05-07 20:12 37.65647 -4.50256 18346 ft 281 kts 264°
2026-05-07 20:12 37.65487 -4.52715 18009 ft 281 kts 264°
2026-05-07 20:13 37.65328 -4.55171 17651 ft 280 kts 264°
2026-05-07 20:13 37.65168 -4.57618 17330 ft 279 kts 264°
2026-05-07 20:13 37.65008 -4.60055 17011 ft 278 kts 264°
2026-05-07 20:13 37.64849 -4.62481 16701 ft 277 kts 264°
2026-05-07 20:14 37.64689 -4.64896 16391 ft 276 kts 264°
2026-05-07 20:14 37.64531 -4.67301 16093 ft 275 kts 264°
2026-05-07 20:14 37.64370 -4.69712 15787 ft 278 kts 264°
2026-05-07 20:14 37.64207 -4.72157 15483 ft 282 kts 264°
2026-05-07 20:15 37.64040 -4.74662 15170 ft 291 kts 264°
2026-05-07 20:15 37.63868 -4.77223 14840 ft 294 kts 264°
2026-05-07 20:15 37.63695 -4.79791 14501 ft 293 kts 264°
2026-05-07 20:15 37.63523 -4.82352 14175 ft 293 kts 264°
2026-05-07 20:16 37.63350 -4.84911 13858 ft 292 kts 263°
2026-05-07 20:16 37.63177 -4.87462 13506 ft 292 kts 263°
2026-05-07 20:16 37.63004 -4.90012 13156 ft 291 kts 263°
2026-05-07 20:16 37.62831 -4.92553 12816 ft 290 kts 263°
2026-05-07 20:17 37.62658 -4.95079 12493 ft 289 kts 263°
2026-05-07 20:17 37.62485 -4.97595 12175 ft 287 kts 263°
2026-05-07 20:17 37.62313 -5.00094 11850 ft 285 kts 263°
2026-05-07 20:17 37.62141 -5.02583 11537 ft 284 kts 263°
2026-05-07 20:18 37.61968 -5.05058 11230 ft 283 kts 263°
2026-05-07 20:18 37.61796 -5.07528 10914 ft 282 kts 263°
2026-05-07 20:18 37.61624 -5.09990 10603 ft 282 kts 263°
2026-05-07 20:18 37.61453 -5.12448 10297 ft 281 kts 263°
2026-05-07 20:19 37.61281 -5.14901 10054 ft 278 kts 263°
2026-05-07 20:19 37.61113 -5.17301 9875 ft 273 kts 263°
2026-05-07 20:19 37.60945 -5.19685 9551 ft 273 kts 263°
2026-05-07 20:19 37.60776 -5.22062 9258 ft 272 kts 263°
2026-05-07 20:20 37.60585 -5.24426 8965 ft 270 kts 257°
2026-05-07 20:20 37.60182 -5.25892 8741 ft 267 kts 239°
2026-05-07 20:20 37.59182 -5.27854 8496 ft 266 kts 234°
2026-05-07 20:20 37.58144 -5.29789 8209 ft 268 kts 234°
2026-05-07 20:21 37.57095 -5.31736 7929 ft 268 kts 234°
2026-05-07 20:21 37.56050 -5.33678 7641 ft 267 kts 234°
2026-05-07 20:21 37.55010 -5.35616 7349 ft 267 kts 234°
2026-05-07 20:21 37.53974 -5.37551 7062 ft 266 kts 234°
2026-05-07 20:22 37.52944 -5.39478 6784 ft 265 kts 234°
2026-05-07 20:22 37.51917 -5.41400 6490 ft 264 kts 234°
2026-05-07 20:22 37.50896 -5.43314 6221 ft 262 kts 234°
2026-05-07 20:22 37.49881 -5.45216 5924 ft 261 kts 234°
2026-05-07 20:23 37.48871 -5.47107 5643 ft 259 kts 234°
2026-05-07 20:23 37.47867 -5.48985 5370 ft 258 kts 234°
2026-05-07 20:23 37.46867 -5.50856 5088 ft 257 kts 234°
2026-05-07 20:23 37.45872 -5.52716 4811 ft 255 kts 235°
2026-05-07 20:24 37.44885 -5.54561 4528 ft 253 kts 235°
2026-05-07 20:24 37.43905 -5.56392 4258 ft 251 kts 235°
2026-05-07 20:24 37.42933 -5.58204 3981 ft 249 kts 235°
2026-05-07 20:24 37.42047 -5.60056 3703 ft 248 kts 249°
2026-05-07 20:25 37.41828 -5.62194 3470 ft 247 kts 267°
2026-05-07 20:25 37.41830 -5.64350 3199 ft 246 kts 267°
2026-05-07 20:25 37.41833 -5.66496 2927 ft 245 kts 268°
2026-05-07 20:25 37.41836 -5.68628 2674 ft 244 kts 267°
2026-05-07 20:26 37.41838 -5.70731 2411 ft 243 kts 268°
2026-05-07 20:26 37.41836 -5.72876 2135 ft 242 kts 267°
2026-05-07 20:26 37.41833 -5.74955 1878 ft 240 kts 267°
2026-05-07 20:26 37.41828 -5.77039 1631 ft 237 kts 268°
2026-05-07 20:27 37.41824 -5.79090 1466 ft 230 kts 267°
2026-05-07 20:27 37.41821 -5.81050 1448 ft 218 kts 268°
2026-05-07 20:27 37.41817 -5.82908 1423 ft 207 kts 268°
2026-05-07 20:27 37.41812 -5.84690 1439 ft 202 kts 267°
2026-05-07 20:28 37.41805 -5.86459 1436 ft 202 kts 268°
2026-05-07 20:28 37.41799 -5.88220 1439 ft 200 kts 268°
2026-05-07 20:28 37.41802 -5.89952 1437 ft 197 kts 268°
2026-05-07 20:28 37.41797 -5.91672 1438 ft 196 kts 268°
2026-05-07 20:29 37.41791 -5.93382 1427 ft 195 kts 268°
2026-05-07 20:29 37.41804 -5.95080 1439 ft 193 kts 268°
2026-05-07 20:29 37.41785 -5.96766 1442 ft 193 kts 267°
2026-05-07 20:29 37.41781 -5.98464 1450 ft 195 kts 267°
2026-05-07 20:30 37.41773 -6.00174 1449 ft 196 kts 267°
2026-05-07 20:30 37.41762 -6.01891 1438 ft 198 kts 268°
2026-05-07 20:30 37.41759 -6.03623 1439 ft 198 kts 269°
2026-05-07 20:30 37.41755 -6.05351 1438 ft 197 kts 268°
2026-05-07 20:31 37.41748 -6.07079 1433 ft 199 kts 269°
2026-05-07 20:31 37.41756 -6.08818 1456 ft 199 kts 268°
2026-05-07 20:31 37.41752 -6.10581 1434 ft 203 kts 267°
2026-05-07 20:31 37.41747 -6.12357 1441 ft 204 kts 268°
2026-05-07 20:32 37.41751 -6.14129 1430 ft 201 kts 269°
2026-05-07 20:32 37.41760 -6.15860 1424 ft 196 kts 268°
2026-05-07 20:32 37.41747 -6.17562 1427 ft 193 kts 268°
2026-05-07 20:32 37.41741 -6.19250 1429 ft 194 kts 268°
2026-05-07 20:33 37.41730 -6.20947 1437 ft 195 kts 268°
2026-05-07 20:33 37.41717 -6.22658 1438 ft 197 kts 268°
2026-05-07 20:33 37.41706 -6.24384 1443 ft 198 kts 268°
2026-05-07 20:33 37.41692 -6.26123 1441 ft 200 kts 274°
2026-05-07 20:34 37.42196 -6.27748 1433 ft 206 kts 308°
2026-05-07 20:34 37.43410 -6.28716 1428 ft 214 kts 344°
2026-05-07 20:34 37.44883 -6.28632 1421 ft 216 kts 19°
2026-05-07 20:34 37.46069 -6.27501 1416 ft 217 kts 56°
2026-05-07 20:35 37.46724 -6.25795 1445 ft 218 kts 69°
2026-05-07 20:35 37.47268 -6.24032 1432 ft 219 kts 69°
2026-05-07 20:35 37.47820 -6.22208 1435 ft 221 kts 70°
2026-05-07 20:35 37.48365 -6.20420 1441 ft 223 kts 69°
2026-05-07 20:36 37.48929 -6.18574 1437 ft 223 kts 70°
2026-05-07 20:36 37.49486 -6.16739 1429 ft 224 kts 70°
2026-05-07 20:36 37.50034 -6.14952 1407 ft 220 kts 69°
2026-05-07 20:36 37.50575 -6.13171 1408 ft 217 kts 70°
2026-05-07 20:37 37.51113 -6.11401 1435 ft 217 kts 69°
2026-05-07 20:37 37.51642 -6.09612 1439 ft 219 kts 70°
2026-05-07 20:37 37.52168 -6.07807 1439 ft 221 kts 70°
2026-05-07 20:37 37.52704 -6.05981 1439 ft 222 kts 69°
2026-05-07 20:38 37.53238 -6.04157 1440 ft 221 kts 70°
2026-05-07 20:38 37.53775 -6.02329 1421 ft 223 kts 70°
2026-05-07 20:38 37.54248 -6.00470 1426 ft 224 kts 84°
2026-05-07 20:38 37.54216 -5.98526 1439 ft 221 kts 95°
2026-05-07 20:39 37.54130 -5.96606 1436 ft 218 kts 95°
2026-05-07 20:39 37.54052 -5.94717 1440 ft 215 kts 94°
2026-05-07 20:39 37.53979 -5.92837 1427 ft 214 kts 95°
2026-05-07 20:39 37.53913 -5.90971 1446 ft 214 kts 94°
2026-05-07 20:40 37.53842 -5.89079 1422 ft 218 kts 94°
2026-05-07 20:40 37.53818 -5.87167 1453 ft 217 kts 92°
2026-05-07 20:40 37.53791 -5.85305 1426 ft 207 kts 93°
2026-05-07 20:40 37.53773 -5.83535 1420 ft 200 kts 92°
2026-05-07 20:41 37.53543 -5.81823 1442 ft 197 kts 108°
2026-05-07 20:41 37.53191 -5.80154 1444 ft 196 kts 107°
2026-05-07 20:41 37.52580 -5.78674 1425 ft 189 kts 141°
2026-05-07 20:41 37.51449 -5.77958 1449 ft 181 kts 167°
2026-05-07 20:42 37.50235 -5.77549 1438 ft 181 kts 170°
2026-05-07 20:42 37.49018 -5.77200 1440 ft 176 kts 172°
2026-05-07 20:42 37.47855 -5.76944 1434 ft 161 kts 175°
2026-05-07 20:42 37.46791 -5.76761 1387 ft 151 kts 175°
2026-05-07 20:43 37.45767 -5.76590 1374 ft 152 kts 176°
2026-05-07 20:43 37.44712 -5.76488 1310 ft 149 kts 183°
2026-05-07 20:43 37.43686 -5.76477 1306 ft 145 kts 181°
2026-05-07 20:43 37.42763 -5.76739 1259 ft 133 kts 224°
2026-05-07 20:44 37.42377 -5.77836 1302 ft 148 kts 252°
2026-05-07 20:44 37.42016 -5.79028 1281 ft 143 kts 254°
2026-05-07 20:44 37.41902 -5.80249 1278 ft 142 kts 262°
2026-05-07 20:44 37.41830 -5.81518 1082 ft 147 kts 266°
2026-05-07 20:45 37.41819 -5.82794 880 ft 144 kts 268°
2026-05-07 20:45 37.41812 -5.84040 690 ft 141 kts 269°
2026-05-07 20:45 37.41810 -5.85283 501 ft 144 kts 269°
2026-05-07 20:45 37.41805 -5.86563 290 ft 147 kts 268°
2026-05-07 20:46 37.41801 -5.87832 136 ft 141 kts 269°
2026-05-07 20:46 37.41796 -5.88963 103 ft 115 kts 269°
2026-05-07 20:46 37.41793 -5.89672 97 ft 34 kts 270°
2026-05-07 20:46 37.41917 -5.89838 96 ft 18 kts 337°
2026-05-07 20:47 37.42021 -5.89893 94 ft 16 kts 337°
2026-05-07 20:47 37.42121 -5.89928 93 ft 15 kts 15°
2026-05-07 20:47 37.42188 -5.89850 93 ft 12 kts 44°
2026-05-07 20:47 37.42245 -5.89782 93 ft 7 kts 44°
2026-05-07 20:48 37.42267 -5.89757 93 ft 4 kts 31°
2026-05-07 20:48 37.42294 -5.89738 93 ft 6 kts 30°
2026-05-07 20:48 37.42335 -5.89699 93 ft 9 kts 41°
2026-05-07 20:48 37.42343 -5.89627 93 ft 11 kts 123°
2026-05-07 20:49 37.42290 -5.89555 96 ft 7 kts 134°
2026-05-07 20:49 37.42281 -5.89529 93 ft 2 kts 70°
2026-05-07 20:49 37.42295 -5.89505 93 ft 3 kts 53°
2026-05-07 20:49 37.42298 -5.89488 95 ft 1 kts 85°
2026-05-07 20:50 37.42297 -5.89486 95 ft 0 kts 90°